Location: Unspecified
(0.0000°N, 0.0000°E)
Time: 15:23:01
(UTC+00:00)

A-11 Canister half - Pass Details

Date: 23 May 2026
Orbit: 1515 x 1685 km, 47.2° (Epoch: 8 June)

Event Time Altitude Azimuth Distance (km) Brightness Sun altitude
Rises 03:11:49 0° 335° (NNW) 4,644 11.5 -38.1°
Reaches altitude 10° 03:15:04 10° 342° (NNW) 3,671 11.0 -37.4°
Maximum altitude 03:23:39 42° 50° (NE) 2,066 9.9 -35.4°
Drops below altitude 10° 03:32:27 10° 118° (ESE) 3,772 11.4 -33.5°
Sets 03:35:48 0° 125° (SE) 4,783 12.0 -32.7°
